Home   Weather   Jaisalmer   Past weeks

Flag for India Past Weather in Jaisalmer, Rajasthan, India — Yesterday and Last 2 Weeks

Now
57 °F

Passing clouds.


Feels Like: 57 °F
Forecast: 50 / 67 °F
Wind: No wind

Location: Sukkur

Current Time: Jan 21, 2017 at 12:06:11 am

Latest Report: Jan 20, 2017 at 11:30 pm


Visibility: 2 mi

Pressure: 30.15 "Hg

Humidity: 67%

Dew Point: 46 °F

Location of JaisalmerLocation

Past Weather in Jaisalmer — Graph

°F

Jaisalmer Temperature Yesterday

Maximum temperature yesterday: 68 °F (at 2:30 pm)
Minimum temperature yesterday: 48 °F (at 7:00 am)
Average temperature yesterday: 58 °F

High & Low Weather Summary for the Past Weeks

 TemperatureHumidityPressure
High75 °F (Jan 6, 3:30 pm)100% (Jan 18, 7:30 am)30.33 "Hg (Jan 18, 7:30 am)
Low36 °F (Jan 10, 8:30 am)20% (Jan 7, 4:30 pm)29.80 "Hg (Jan 6, 3:30 pm)
Average57 °F71%30.02 "Hg
* Reported Jan 5 10:30 pm — Jan 20 10:30 pm, Jaisalmer, Weather by CustomWeather, © 2017

Note: Actual official high and low records may vary slightly from our data, if they occured in-between our weather recording intervals... More about our weather records

Advertising

Jaisalmer Weather History for the Previous 24 Hours

Scroll right to see more
 ConditionsComfort  
Time TempWeatherWind HumidityBarometerVisibility
10:30 pm
Fri, Jan 20
57 °FPassing clouds.No wind72%30.15 "Hg2 mi
9:30 pm59 °FPassing clouds.No wind68%30.15 "Hg2 mi
8:30 pm61 °FPassing clouds.No wind68%30.15 "Hg2 mi
7:30 pm61 °FPassing clouds.No wind59%30.12 "Hg2 mi
6:30 pm63 °FPassing clouds.5 mph56%30.12 "Hg2 mi
5:30 pm64 °FScattered clouds.7 mph52%30.12 "Hg2 mi
4:30 pm68 °FScattered clouds.7 mph43%30.15 "Hg2 mi
3:30 pm68 °FScattered clouds.7 mph43%30.15 "Hg2 mi
2:30 pm68 °FScattered clouds.9 mph53%30.18 "Hg2 mi
1:30 pm66 °FScattered clouds.9 mph49%30.24 "Hg2 mi
12:30 pm64 °FScattered clouds.7 mph52%30.27 "Hg2 mi
11:30 am61 °FScattered clouds.7 mph59%30.27 "Hg1 mi
11:00 am54 °FScattered clouds.5 mph72%30.27 "Hg1 mi
10:30 am54 °FScattered clouds.5 mph72%30.27 "Hg1 mi
9:30 am48 °FFog.No wind76%30.27 "Hg1 mi
8:30 am48 °FFog.No wind82%30.27 "Hg1 mi
7:30 am48 °FFog.No wind87%30.27 "Hg1 mi
7:00 am48 °FFog.5 mph87%30.27 "Hg1 mi
1:30 am54 °FPassing clouds.5 mph72%30.27 "Hg1 mi
12:30 am54 °FPassing clouds.5 mph72%30.27 "Hg1 mi
Weather by CustomWeather, © 2017

See weather overviewHow to use our weather pages